SCP
0 0 0 0 0 0 0 0 0 0 0 0 0 0 0 0 0 0 0 0 0 0 0 0 0 0 0 0 0 0 0 0 0 0 0 0 0 0
0 0 0 0 0 0 0 0 0 0 0 0 0 0 0 0 0 0 0 0 0 0 0 0 0 0 0 0 0 0 0 0 0 0 0 0 0 0
0 0 0 0 0 0 0 0 0 0 0 0 0 0 0 0 0 0 0 0 0 0 0 0 0 0 0 0 0 0 0 0 1 0 0 0 0 0
0 0 0 0 0 0 0 0 0 0 0 0 0 0 0 0 0 0 0 0 0 0 0 0 0 0 0 0 0 0 0 0 0 0 0 0 0 0
0 0 0 0 0 0 0 0 0 0 0 0 0 0 0 0 0 0 0 0 0 0 0 0 0 0 0 0 0 0 0 0 0 0 0 0 0 0
0 0 0 0 0 0 0 0 0 0 0 0 0 0 0 0 0 0 0 0 0 0 0 0 0 0 0 0 0 0 0 0 0 0 0 0 0 0
0 0 0 0 0 0 0 0 0 0 0 0 0 0 0 0 0 0 0 0 0 0 0 0 0 0 0 0 0 0 0 0 0 0 0 0 0 0
0 0 0 0 0 0 0 0 0 0 0 0 -0 0 0 0 0 0 0 0 0 0 0 0 0 0 0 0 0 0 0 0 0 0 0 0 0 0
0 0 0 0 0 0 0 0 0 0 0 0 0 -0 -0 -0 0 0 0 0 0 0 0 0 0 0 0 0 0 0 0 0 0 0 0 0 0 0
0 0 0 0 0 0 0 0 0 0 0 0 0 0 -0 -0 -0 -0 -0 0 0 0 0 0 0 0 0 0 0 0 0 0 0 0 0 0 0 0
0 0 0 0 0 0 0 0 0 0 0 0 0 0 0 0 0 0 -0 0 0 0 0 0 0 0 0 0 0 0 0 0 0 0 0 0 0 0
0 0 0 0 0 0 0 0 0 0 0 0 0 0 0 0 0 0 0 -0 -0 -0 -0 0 0 0 0 0 0 0 0 0 0 0 0 0 0 0
0 0 0 0 0 0 0 0 0 0 0 0 0 0 0 0 0 0 0 0 -0 -0 -0 -0 -0 0 0 0 0 0 0 0 0 0 0 0 0 0
0 0 0 0 0 0 0 0 0 0 0 0 0 0 0 0 0 0 0 0 -0 -0 -0 -0 0 0 0 0 0 0 0 0 0 0 0 0 0 0
0 0 0 0 0 0 0 0 0 0 0 0 0 0 0 0 0 0 0 0 0 0 0 0 0 0 0 0 0 0 0 0 0 0 0 0 0 0
0 0 0 0 0 0 0 0 0 0 0 0 0 0 0 0 0 0 0 0 0 0 0 0 0 0 0 0 0 0 0 0 0 0 0 0 0 0
0 0 0 0 0 0 0 0 0 0 0 0 0 0 0 0 0 0 0 0 0 0 0 0 0 0 0 0 0 0 0 0 0 0 0 0 0 0
0 0 0 0 0 0 0 0 0 0 0 0 0 0 0 0 0 0 0 0 0 0 0 0 0 0 0 0 0 0 0 0 0 0 0 0 0 0
0 0 0 0 0 0 0 0 0 0 0 0 0 0 0 0 0 0 0 0 0 0 0 0 0 0 0 0 0 0 0 0 0 0 0 0 0 0
0 0 0 0 0 0 0 0 0 0 0 0 0 0 0 0 0 0 0 0 0 0 0 0 0 0 0 0 0 0 0 0 0 0 0 0 0 -0
0 0 0 0 0 0 0 0 0 0 0 0 0 0 0 0 0 0 0 0 0 0 0 0 0 0 0 0 0 0 0 0 0 0 0 0 -0 -0
0 0 0 0 0 0 0 0 0 0 0 0 0 0 0 0 0 0 0 0 0 0 0 0 0 0 0 0 0 0 0 0 0 0 0 0 0 -0
0 0 0 0 0 0 0 0 0 0 0 0 0 0 0 0 0 0 0 0 0 0 0 0 0 0 0 0 0 0 0 0 0 0 0 0 0 0
Wind_Speed_500mb
13 14 19 22 24 24 26 23 20 23 24 21 15 18 24 26 26 25 24 20 25 30 40 42 45 59 62 59 64 69 71 70 71 69 72 77 76 73
14 19 17 17 16 17 21 20 20 18 26 22 27 29 32 28 27 30 29 32 31 32 35 37 40 45 52 65 79 75 68 72 75 71 64 66 69 67
13 14 19 20 17 16 15 15 16 13 14 20 20 19 18 17 20 23 29 31 34 38 38 39 37 40 48 48 62 77 74 73 79 73 68 65 66 66
10 12 13 16 13 9 6 4 3 8 7 7 13 14 12 15 17 16 15 20 27 30 34 34 30 25 37 45 42 53 62 66 82 77 71 69 66 65
13 14 18 19 15 16 12 10 9 15 10 8 12 19 19 19 18 23 18 13 15 19 26 29 27 27 25 44 50 45 33 32 66 80 76 74 71 70
22 21 23 26 25 24 22 19 17 19 17 14 15 19 24 23 23 16 18 18 16 14 10 14 18 26 30 32 40 45 58 36 39 66 75 75 73 74
26 23 25 27 26 24 24 22 16 18 19 21 22 22 31 38 37 35 26 19 10 14 13 11 11 10 15 18 24 33 47 72 45 46 49 61 66 71
26 23 25 27 27 26 22 17 21 20 20 24 24 24 28 37 39 40 41 37 27 17 19 18 14 9 11 16 22 21 32 44 48 50 45 44 46 49
19 19 21 23 21 18 16 13 14 19 20 20 21 24 27 32 39 40 43 39 27 28 31 23 21 13 9 10 9 12 21 29 46 52 53 61 58 59
8 11 11 13 16 15 14 11 14 18 18 15 19 22 19 24 28 32 41 37 20 31 36 35 29 20 11 2 6 5 9 8 22 39 44 57 58 58
0 11 6 7 11 14 14 13 16 22 16 17 20 20 17 21 26 26 35 38 41 30 39 40 44 37 7 6 15 22 21 20 16 18 23 37 47 58
8 11 6 2 5 6 7 9 14 20 17 25 24 24 20 13 20 25 28 40 38 26 35 35 40 46 25 17 36 29 21 21 22 25 24 28 36 42
9 9 5 8 9 8 7 11 17 19 19 23 24 35 17 19 20 19 20 29 37 32 41 29 26 37 36 46 44 37 37 30 22 19 19 22 28 37
12 11 4 6 14 18 14 15 15 17 22 26 31 36 27 21 19 20 13 19 28 34 37 30 25 32 35 40 41 42 39 34 26 28 29 26 24 27
13 12 11 13 12 10 14 14 17 22 28 26 30 30 33 26 21 15 15 22 29 38 39 31 29 28 29 30 37 34 41 29 36 39 37 35 35 32
19 19 19 19 22 25 26 24 26 27 32 27 29 25 31 25 21 22 28 34 42 52 46 32 26 29 30 24 29 33 28 30 36 36 43 39 33 31
26 26 26 26 25 27 35 36 29 23 28 31 28 27 27 30 31 33 36 43 52 58 48 34 25 26 28 35 36 31 32 31 30 35 41 47 38 35
36 34 37 39 35 28 24 23 21 25 29 31 31 30 28 30 33 34 42 52 53 43 38 33 31 34 36 31 26 30 31 36 38 39 40 47 52 40
48 47 44 40 27 23 23 24 31 30 26 36 33 30 30 28 37 47 45 40 35 35 32 31 29 30 35 38 39 29 40 43 49 51 43 42 49 49
46 40 40 34 29 26 26 29 35 29 28 33 30 29 33 41 42 40 34 34 35 36 38 31 25 23 30 37 44 42 35 48 45 43 47 46 45 46
41 39 37 37 34 31 34 35 29 28 29 27 29 34 36 33 38 36 32 29 34 37 39 28 18 21 25 31 37 46 46 34 34 40 44 45 44 47
37 35 36 36 34 31 31 30 30 24 26 29 34 29 25 32 40 36 31 33 34 36 35 28 26 30 33 36 41 47 50 48 39 37 35 38 40 45
34 32 31 30 29 29 29 29 26 27 30 30 24 23 27 34 40 37 36 34 37 39 34 36 36 34 32 32 35 40 43 45 51 54 50 40 37 39
Wind_Direction_500mb
299 298 288 274 270 273 275 275 280 282 276 266 282 276 288 293 291 276 264 257 240 250 252 262 260 248 250 253 250 253 250 250 247 242 242 240 242 245
309 317 313 301 292 288 274 275 272 259 261 273 287 298 293 288 289 285 274 261 255 254 250 246 257 253 254 258 256 242 249 247 245 241 238 242 242 243
313 315 320 320 308 293 280 276 275 271 268 279 303 300 303 297 272 274 276 269 262 258 258 262 260 267 272 274 269 244 247 250 237 238 236 237 240 241
328 351 2 10 357 338 328 257 325 354 347 337 336 325 336 333 316 301 286 283 283 273 260 268 270 271 256 256 260 248 254 249 235 237 235 236 236 239
53 38 36 37 42 50 47 91 88 41 27 9 342 344 348 321 290 278 289 304 295 285 281 267 254 273 265 250 255 246 248 249 242 236 238 239 237 240
53 50 48 46 46 46 48 54 44 39 44 41 33 23 15 7 5 335 288 277 292 279 310 299 287 262 249 260 264 259 242 253 254 243 233 235 239 242
52 54 53 48 47 51 56 67 58 38 39 42 39 28 16 4 1 354 343 343 325 291 332 318 307 291 268 262 265 259 250 242 267 258 236 241 241 242
53 65 63 58 57 51 52 57 48 44 44 49 43 34 27 25 22 17 11 8 358 324 328 340 327 315 300 312 292 282 240 248 251 258 261 260 257 256
59 76 76 72 72 73 65 60 43 27 27 31 31 27 26 24 19 17 17 14 8 355 341 339 315 329 309 315 315 299 279 262 244 251 258 264 257 255
73 56 61 68 69 71 57 59 51 27 32 27 13 5 359 6 11 15 11 15 29 21 16 16 350 323 340 244 306 287 313 322 259 254 253 262 262 255
9 13 16 54 57 57 55 65 38 29 20 356 344 342 336 349 358 4 15 14 14 17 12 5 3 359 0 317 300 290 284 307 281 260 242 249 256 259
317 334 338 351 5 52 57 21 8 352 356 6 357 348 350 346 359 7 7 15 12 17 4 357 3 4 354 355 354 347 331 311 293 276 273 264 261 261
352 329 305 269 267 244 281 313 343 343 348 2 0 0 323 331 333 343 351 3 6 4 353 352 352 359 354 341 345 357 356 336 316 295 277 272 268 266
338 346 279 299 311 248 258 302 329 348 348 338 343 351 347 323 333 343 330 348 357 347 349 348 343 347 344 341 344 345 354 356 350 322 302 290 287 283
317 320 312 264 279 295 286 293 311 324 327 325 340 348 347 332 322 331 308 325 338 339 342 340 327 327 330 331 332 341 344 354 346 342 334 319 307 297
301 306 304 296 273 271 279 285 293 303 310 308 325 331 343 332 325 321 323 325 327 329 330 328 312 310 319 324 323 328 337 336 339 339 335 330 325 312
292 300 305 307 286 275 276 282 279 292 314 305 304 314 328 329 322 318 318 321 323 323 325 326 311 309 306 309 314 321 332 332 332 332 330 327 327 330
282 291 301 307 299 283 296 297 290 304 301 296 292 299 310 313 316 312 313 314 317 322 324 323 320 314 312 312 325 339 338 334 331 331 329 324 320 330
282 289 296 300 293 278 288 291 300 291 292 305 287 291 301 304 310 313 316 318 322 324 326 322 319 318 321 323 317 329 329 330 325 319 319 320 315 319
286 285 285 285 278 271 276 286 293 289 300 289 286 295 301 309 316 319 320 322 323 324 324 324 319 306 316 321 320 322 322 325 332 332 324 315 312 313
279 279 275 278 279 279 281 286 284 296 292 283 289 296 303 310 321 319 313 315 319 321 321 321 318 305 307 302 304 306 312 318 323 332 339 335 330 323
280 280 274 272 275 277 285 285 283 272 281 290 296 295 300 316 325 318 310 308 313 318 315 306 305 298 296 296 301 303 308 310 307 299 308 327 333 327
278 278 272 273 279 288 284 277 273 285 296 301 291 289 303 318 324 318 310 305 307 309 308 302 304 304 302 303 305 307 308 312 317 316 308 296 299 304
Wind_Speed_850mb
13 14 19 22 24 24 26 23 20 23 24 21 15 18 24 26 26 25 24 20 25 30 40 42 45 59 62 59 64 69 71 70 71 69 72 77 76 73
14 19 17 17 16 17 21 20 20 18 26 22 27 29 32 28 27 30 29 32 31 32 35 37 40 45 52 65 79 75 68 72 75 71 64 66 69 67
13 14 19 20 17 16 15 15 16 13 14 20 20 19 18 17 20 23 29 31 34 38 38 39 37 40 48 48 62 77 74 73 79 73 68 65 66 66
10 12 13 16 13 9 6 4 3 8 7 7 13 14 12 15 17 16 15 20 27 30 34 34 30 25 37 45 42 53 62 66 82 77 71 69 66 65
13 14 18 19 15 16 12 10 9 15 10 8 12 19 19 19 18 23 18 13 15 19 26 29 27 27 25 44 50 45 33 32 66 80 76 74 71 70
22 21 23 26 25 24 22 19 17 19 17 14 15 19 24 23 23 16 18 18 16 14 10 14 18 26 30 32 40 45 58 36 39 66 75 75 73 74
26 23 25 27 26 24 24 22 16 18 19 21 22 22 31 38 37 35 26 19 10 14 13 11 11 10 15 18 24 33 47 72 45 46 49 61 66 71
26 23 25 27 27 26 22 17 21 20 20 24 24 24 28 37 39 40 41 37 27 17 19 18 14 9 11 16 22 21 32 44 48 50 45 44 46 49
19 19 21 23 21 18 16 13 14 19 20 20 21 24 27 32 39 40 43 39 27 28 31 23 21 13 9 10 9 12 21 29 46 52 53 61 58 59
8 11 11 13 16 15 14 11 14 18 18 15 19 22 19 24 28 32 41 37 20 31 36 35 29 20 11 2 6 5 9 8 22 39 44 57 58 58
0 11 6 7 11 14 14 13 16 22 16 17 20 20 17 21 26 26 35 38 41 30 39 40 44 37 7 6 15 22 21 20 16 18 23 37 47 58
8 11 6 2 5 6 7 9 14 20 17 25 24 24 20 13 20 25 28 40 38 26 35 35 40 46 25 17 36 29 21 21 22 25 24 28 36 42
9 9 5 8 9 8 7 11 17 19 19 23 24 35 17 19 20 19 20 29 37 32 41 29 26 37 36 46 44 37 37 30 22 19 19 22 28 37
12 11 4 6 14 18 14 15 15 17 22 26 31 36 27 21 19 20 13 19 28 34 37 30 25 32 35 40 41 42 39 34 26 28 29 26 24 27
13 12 11 13 12 10 14 14 17 22 28 26 30 30 33 26 21 15 15 22 29 38 39 31 29 28 29 30 37 34 41 29 36 39 37 35 35 32
19 19 19 19 22 25 26 24 26 27 32 27 29 25 31 25 21 22 28 34 42 52 46 32 26 29 30 24 29 33 28 30 36 36 43 39 33 31
26 26 26 26 25 27 35 36 29 23 28 31 28 27 27 30 31 33 36 43 52 58 48 34 25 26 28 35 36 31 32 31 30 35 41 47 38 35
36 34 37 39 35 28 24 23 21 25 29 31 31 30 28 30 33 34 42 52 53 43 38 33 31 34 36 31 26 30 31 36 38 39 40 47 52 40
48 47 44 40 27 23 23 24 31 30 26 36 33 30 30 28 37 47 45 40 35 35 32 31 29 30 35 38 39 29 40 43 49 51 43 42 49 49
46 40 40 34 29 26 26 29 35 29 28 33 30 29 33 41 42 40 34 34 35 36 38 31 25 23 30 37 44 42 35 48 45 43 47 46 45 46
41 39 37 37 34 31 34 35 29 28 29 27 29 34 36 33 38 36 32 29 34 37 39 28 18 21 25 31 37 46 46 34 34 40 44 45 44 47
37 35 36 36 34 31 31 30 30 24 26 29 34 29 25 32 40 36 31 33 34 36 35 28 26 30 33 36 41 47 50 48 39 37 35 38 40 45
34 32 31 30 29 29 29 29 26 27 30 30 24 23 27 34 40 37 36 34 37 39 34 36 36 34 32 32 35 40 43 45 51 54 50 40 37 39
Wind_Direction_850mb
299 298 288 274 270 273 275 275 280 282 276 266 282 276 288 293 291 276 264 257 240 250 252 262 260 248 250 253 250 253 250 250 247 242 242 240 242 245
309 317 313 301 292 288 274 275 272 259 261 273 287 298 293 288 289 285 274 261 255 254 250 246 257 253 254 258 256 242 249 247 245 241 238 242 242 243
313 315 320 320 308 293 280 276 275 271 268 279 303 300 303 297 272 274 276 269 262 258 258 262 260 267 272 274 269 244 247 250 237 238 236 237 240 241
328 351 2 10 357 338 328 257 325 354 347 337 336 325 336 333 316 301 286 283 283 273 260 268 270 271 256 256 260 248 254 249 235 237 235 236 236 239
53 38 36 37 42 50 47 91 88 41 27 9 342 344 348 321 290 278 289 304 295 285 281 267 254 273 265 250 255 246 248 249 242 236 238 239 237 240
53 50 48 46 46 46 48 54 44 39 44 41 33 23 15 7 5 335 288 277 292 279 310 299 287 262 249 260 264 259 242 253 254 243 233 235 239 242
52 54 53 48 47 51 56 67 58 38 39 42 39 28 16 4 1 354 343 343 325 291 332 318 307 291 268 262 265 259 250 242 267 258 236 241 241 242
53 65 63 58 57 51 52 57 48 44 44 49 43 34 27 25 22 17 11 8 358 324 328 340 327 315 300 312 292 282 240 248 251 258 261 260 257 256
59 76 76 72 72 73 65 60 43 27 27 31 31 27 26 24 19 17 17 14 8 355 341 339 315 329 309 315 315 299 279 262 244 251 258 264 257 255
73 56 61 68 69 71 57 59 51 27 32 27 13 5 359 6 11 15 11 15 29 21 16 16 350 323 340 244 306 287 313 322 259 254 253 262 262 255
9 13 16 54 57 57 55 65 38 29 20 356 344 342 336 349 358 4 15 14 14 17 12 5 3 359 0 317 300 290 284 307 281 260 242 249 256 259
317 334 338 351 5 52 57 21 8 352 356 6 357 348 350 346 359 7 7 15 12 17 4 357 3 4 354 355 354 347 331 311 293 276 273 264 261 261
352 329 305 269 267 244 281 313 343 343 348 2 0 0 323 331 333 343 351 3 6 4 353 352 352 359 354 341 345 357 356 336 316 295 277 272 268 266
338 346 279 299 311 248 258 302 329 348 348 338 343 351 347 323 333 343 330 348 357 347 349 348 343 347 344 341 344 345 354 356 350 322 302 290 287 283
317 320 312 264 279 295 286 293 311 324 327 325 340 348 347 332 322 331 308 325 338 339 342 340 327 327 330 331 332 341 344 354 346 342 334 319 307 297
301 306 304 296 273 271 279 285 293 303 310 308 325 331 343 332 325 321 323 325 327 329 330 328 312 310 319 324 323 328 337 336 339 339 335 330 325 312
292 300 305 307 286 275 276 282 279 292 314 305 304 314 328 329 322 318 318 321 323 323 325 326 311 309 306 309 314 321 332 332 332 332 330 327 327 330
282 291 301 307 299 283 296 297 290 304 301 296 292 299 310 313 316 312 313 314 317 322 324 323 320 314 312 312 325 339 338 334 331 331 329 324 320 330
282 289 296 300 293 278 288 291 300 291 292 305 287 291 301 304 310 313 316 318 322 324 326 322 319 318 321 323 317 329 329 330 325 319 319 320 315 319
286 285 285 285 278 271 276 286 293 289 300 289 286 295 301 309 316 319 320 322 323 324 324 324 319 306 316 321 320 322 322 325 332 332 324 315 312 313
279 279 275 278 279 279 281 286 284 296 292 283 289 296 303 310 321 319 313 315 319 321 321 321 318 305 307 302 304 306 312 318 323 332 339 335 330 323
280 280 274 272 275 277 285 285 283 272 281 290 296 295 300 316 325 318 310 308 313 318 315 306 305 298 296 296 301 303 308 310 307 299 308 327 333 327
278 278 272 273 279 288 284 277 273 285 296 301 291 289 303 318 324 318 310 305 307 309 308 302 304 304 302 303 305 307 308 312 317 316 308 296 299 304